TimeEST,TemperatureF,Dew PointF,Humidity,Sea Level PressureIn,VisibilityMPH,Wind Direction,Wind SpeedMPH,Gust SpeedMPH,PrecipitationIn,Events,Conditions,WindDirDegrees,DateUTC
12:52 AM,45.0,37.9,76,29.49,10.0,SW,8.1,-,0.00,,Mostly Cloudy,220,2012-02-23 05:52:00
1:52 AM,41.0,37.0,86,29.49,10.0,SSW,4.6,-,N/A,,Partly Cloudy,210,2012-02-23 06:52:00
2:52 AM,39.9,37.0,89,29.50,10.0,SSW,5.8,-,N/A,,Clear,200,2012-02-23 07:52:00
3:52 AM,37.9,36.0,93,29.52,10.0,Calm,Calm,-,N/A,,Partly Cloudy,0,2012-02-23 08:52:00
4:52 AM,37.0,35.1,93,29.54,10.0,Calm,Calm,-,N/A,,Partly Cloudy,0,2012-02-23 09:52:00
5:52 AM,35.1,34.0,96,29.55,10.0,Calm,Calm,-,N/A,,Overcast,0,2012-02-23 10:52:00
6:52 AM,35.1,34.0,96,29.56,6.0,Calm,Calm,-,N/A,,Mostly Cloudy,0,2012-02-23 11:52:00
7:52 AM,37.0,36.0,96,29.56,7.0,Calm,Calm,-,N/A,,Mostly Cloudy,0,2012-02-23 12:52:00
8:52 AM,39.0,37.9,96,29.59,8.0,Calm,Calm,-,N/A,,Overcast,0,2012-02-23 13:52:00
9:52 AM,45.0,42.1,90,29.60,10.0,Calm,Calm,-,N/A,,Overcast,0,2012-02-23 14:52:00
10:52 AM,46.0,41.0,83,29.63,10.0,Calm,Calm,-,0.00,Rain,Light Rain,0,2012-02-23 15:52:00
11:52 AM,46.9,42.1,83,29.61,10.0,East,4.6,-,0.01,Rain,Light Rain,100,2012-02-23 16:52:00
12:52 PM,50.0,43.0,77,29.56,10.0,ENE,9.2,-,0.00,,Mostly Cloudy,70,2012-02-23 17:52:00
1:52 PM,52.0,39.9,63,29.50,10.0,East,13.8,-,N/A,,Overcast,80,2012-02-23 18:52:00
2:52 PM,54.0,39.0,57,29.45,10.0,East,12.7,-,N/A,,Mostly Cloudy,90,2012-02-23 19:52:00
3:52 PM,55.9,39.0,53,29.42,10.0,East,17.3,-,N/A,,Mostly Cloudy,90,2012-02-23 20:52:00
4:52 PM,54.0,39.0,57,29.41,10.0,East,16.1,-,N/A,,Mostly Cloudy,90,2012-02-23 21:52:00
5:52 PM,53.1,39.0,59,29.38,10.0,East,11.5,-,N/A,,Overcast,90,2012-02-23 22:52:00
6:52 PM,52.0,39.0,61,29.39,10.0,East,10.4,-,N/A,,Overcast,90,2012-02-23 23:52:00
7:52 PM,52.0,39.0,61,29.37,10.0,East,8.1,-,N/A,,Overcast,100,2012-02-24 00:52:00
8:52 PM,52.0,39.0,61,29.38,10.0,ENE,5.8,-,N/A,,Overcast,60,2012-02-24 01:52:00
9:52 PM,46.9,41.0,80,29.37,10.0,East,5.8,-,0.00,,Scattered Clouds,80,2012-02-24 02:52:00
10:52 PM,46.0,39.0,76,29.36,10.0,South,4.6,-,N/A,,Scattered Clouds,170,2012-02-24 03:52:00